sat.trackr.live / text

‹ back to catalog

STARLINK-34791

NORAD 65891 · 2025-224K

PAYLOAD ACTIVE UNKNOWN

§ Identity

Operator
Country
US
Launch date
2025-10-07
Launch site
AFETR
Launch vehicle
Mass (kg)
RCS (m²)

Purposes: comms

External: N2YO · Heavens-Above · Gunter

§ Orbital elements

Epoch: 2026-05-24T22:31:46.651296Z

Period
94.11 min
Inclination
53.1588°
Eccentricity
0.0001204
Mean motion
15.30201145 rev/d
Perigee alt
474.4 km
Apogee alt
476.0 km
Semi-major
6,853.3 km
B*
2.6739e-4
RAAN
17.5141°
Arg perigee
97.6523°
Mean anomaly
262.4614°
Rev number
3,654

§ Raw data

STARLINK-347911 65891U 25224K   26144.93873439  .00007569  00000+0  26739-3 0  99932 65891  53.1588  17.5141 0001204  97.6523 262.4614 15.30201145 36544

JSON: /api/v1/satellites/65891 · /tle

For live sub-satellite position, see the globe view (requires WebGL).

§ Visibility from observer

Set your observer location to see the next 7 days of passes ≥ 10°. The values pass through the URL so the page stays shareable.

No JS? Fill the form by hand. The geolocation button needs JavaScript.